Location: St. Louis
(38.6270°N, 90.1994°W)
Time: 20:50:33
(UTC-06:00)

Vanguard 3 - Pass Details

Date: 02 December 2021
Orbit: 508 x 3260 km, 33.3° (Epoch: 19 January)

Event Time Altitude Azimuth Distance (km) Brightness Sun altitude
Exits shadow 02:45:59 38° 180° (S) 4,292 10.5 -49.1°
Maximum altitude 02:51:28 44° 149° (SSE) 4,000 10.5 -48.0°
Drops below altitude 10° 03:07:22 10° 85° (E) 5,426 11.9 -44.9°
Sets 03:11:16 0° 79° (E) 6,139 12.4 -44.2°
